Karlovy, Czech Republic

6:22 AM CET on February 20, 2017 (GMT +0100)
Karlovy Vary

Weather History for LKKV - September, 2013

Change the Weather History Date:

Thursday, September 19, 2013

  Actual Average (EDQM) Record (EDQM)
Temperature  
Mean Temperature 48 °F -  
Max Temperature 51 °F 59 °F 78 °F (2003)
Min Temperature 44 °F 44 °F 32 °F (2008)
Degree Days  
Heating Degree Days 18    
Moisture  
Dew Point 42 °F    
Average Humidity 85    
Maximum Humidity 93    
Minimum Humidity 67    
Precipitation  
Precipitation 0.00 in - - ()
Sea Level Pressure  
Sea Level Pressure 29.84 in    
Wind  
Wind Speed 7 mph ()    
Max Wind Speed 15 mph    
Max Gust Speed 26 mph    
Visibility 6.2 miles    
Events Rain    
Averages and records for this station are not official NWS values.
T = Trace of Precipitation, MM = Missing Value Source: Averaged Metar Reports

Daily Weather History Graph

Daily Weather History Graph

Search for Another Location

Airport or City:

Trip Planner

Search our weather history database for the weather conditions in past years. The results will help you decide how hot, cold, wet, or windy it might be!

Date:

Astronomy

Sep. 19, 2013 Rise Set
Actual Time 6:50 AM CEST 7:13 PM CEST
Civil Twilight 6:17 AM CEST 7:45 PM CEST
Nautical Twilight 5:38 AM CEST 8:23 PM CEST
Astronomical Twilight 4:58 AM CEST 9:04 PM CEST
Moon 6:54 PM CEST (9/19) 6:43 AM CEST (9/19)
Length of Visible Light 13h 27m
Length of Day
12h 22m
Full, 100% of the Moon is Illuminated
Sep 19
Full
Sep 19
Full
Sep 27
Last Quarter
Oct 5
New
Oct 12
First Quarter

Hourly Weather History & Observations

Time (CEST) Temp. Windchill Dew Point Humidity Pressure Visibility Wind Dir Wind Speed Gust Speed Precip Events Conditions
12:00 AM 44.6 °F 41.4 °F 42.8 °F 93% 29.62 in 6.2 mi WSW 5.8 mph - N/A   Mostly Cloudy
1:00 AM 44.6 °F 40.7 °F 42.8 °F 93% 29.65 in 6.2 mi West 6.9 mph - N/A   Mostly Cloudy
2:00 AM 44.6 °F 40.2 °F 41.0 °F 87% 29.68 in 6.2 mi West 8.1 mph - N/A   Mostly Cloudy
3:00 AM 44.6 °F 40.2 °F 41.0 °F 87% 29.68 in 6.2 mi West 8.1 mph - N/A   Mostly Cloudy
4:00 AM 44.6 °F 40.2 °F 42.8 °F 93% 29.71 in 6.2 mi West 8.1 mph - N/A   Mostly Cloudy
5:00 AM 44.6 °F 40.2 °F 42.8 °F 93% 29.71 in 6.2 mi WSW 8.1 mph - N/A   Mostly Cloudy
6:00 AM 44.6 °F 40.7 °F 42.8 °F 93% 29.74 in 6.2 mi West 6.9 mph - N/A   Mostly Cloudy
7:00 AM 44.6 °F 40.7 °F 42.8 °F 93% 29.77 in 6.2 mi WSW 6.9 mph - N/A   Mostly Cloudy
8:00 AM 44.6 °F 40.7 °F 42.8 °F 93% 29.77 in 6.2 mi WSW 6.9 mph - N/A   Mostly Cloudy
8:30 AM 44.6 °F 40.7 °F 42.8 °F 93% 29.80 in 6.2 mi WSW 6.9 mph - N/A   Mostly Cloudy
8:45 AM 44.6 °F 40.7 °F 42.8 °F 93% 29.80 in 6.2 mi WSW 6.9 mph - N/A Rain Light Rain
9:00 AM 44.6 °F 40.2 °F 42.8 °F 93% 29.80 in 6.2 mi WSW 8.1 mph - N/A Rain Light Rain
9:30 AM 46.4 °F 42.4 °F 44.6 °F 93% 29.83 in 6.2 mi West 8.1 mph - N/A Rain Light Rain
10:00 AM 46.4 °F 41.9 °F 44.6 °F 93% 29.83 in 6.2 mi West 9.2 mph - N/A   Mostly Cloudy
10:30 AM 46.4 °F 41.1 °F 44.6 °F 93% 29.83 in 6.2 mi West 11.5 mph - N/A   Mostly Cloudy
11:00 AM 46.4 °F 41.5 °F 42.8 °F 87% 29.86 in 6.2 mi West 10.4 mph - N/A   Scattered Clouds
11:05 AM 46.4 °F 41.1 °F 42.8 °F 87% 29.86 in 6.2 mi West 11.5 mph - N/A Rain Light Rain Showers
11:30 AM 46.4 °F 41.9 °F 42.8 °F 87% 29.86 in 6.2 mi West 9.2 mph - N/A   Scattered Clouds
12:00 PM 48.2 °F - 42.8 °F 82% 29.86 in 6.2 mi WSW 5.8 mph - N/A   Mostly Cloudy
12:30 PM 50.0 °F - 41.0 °F 71% 29.86 in 6.2 mi West 11.5 mph - N/A   Scattered Clouds
12:41 PM 50.0 °F - 41.0 °F 71% 29.86 in 6.2 mi West 11.5 mph - N/A Rain Light Rain Showers
1:00 PM 48.2 °F - 41.0 °F 76% 29.86 in 6.2 mi West 13.8 mph - N/A   Mostly Cloudy
1:30 PM 51.8 °F - 41.0 °F 67% 29.86 in 6.2 mi WSW 9.2 mph - N/A   Mostly Cloudy
1:49 PM 46.4 °F 40.1 °F 41.0 °F 81% 29.89 in 6.2 mi West 15.0 mph 26.5 mph N/A Rain Light Rain Showers
2:00 PM 44.6 °F 38.8 °F 41.0 °F 87% 29.89 in 6.2 mi WSW 11.5 mph - N/A Rain Light Rain Showers
2:30 PM 50.0 °F - 42.8 °F 76% 29.89 in 6.2 mi WNW 11.5 mph - N/A   Scattered Clouds
2:38 PM 50.0 °F - 42.8 °F 76% 29.89 in 6.2 mi West 9.2 mph - N/A Rain Light Rain Showers
3:00 PM 50.0 °F - 42.8 °F 76% 29.89 in 6.2 mi WNW 8.1 mph - N/A Rain Light Rain Showers
3:30 PM 48.2 °F - 41.0 °F 76% 29.89 in 6.2 mi West 11.5 mph - N/A Rain Light Rain Showers
4:00 PM 50.0 °F - 42.8 °F 76% 29.89 in 6.2 mi West 9.2 mph - N/A   Scattered Clouds
4:30 PM 50.0 °F - 42.8 °F 76% 29.89 in 6.2 mi West 11.5 mph - N/A Rain Light Rain Showers
5:00 PM 48.2 °F - 41.0 °F 76% 29.89 in 6.2 mi West 8.1 mph - N/A   Scattered Clouds
5:30 PM 48.2 °F - 42.8 °F 82% 29.89 in 6.2 mi West 8.1 mph - N/A   Partly Cloudy
6:00 PM 48.2 °F - 41.0 °F 76% 29.92 in 6.2 mi WSW 8.1 mph - N/A   Partly Cloudy
6:30 PM 48.2 °F - 42.8 °F 82% 29.92 in 6.2 mi West 6.9 mph - N/A   Partly Cloudy
7:00 PM 46.4 °F 45.2 °F 41.0 °F 81% 29.92 in - WSW 3.5 mph - N/A   Clear
7:30 PM 44.6 °F - 41.0 °F 87% 29.92 in 6.2 mi Variable 2.3 mph - N/A   Partly Cloudy
8:00 PM 46.4 °F 44.3 °F 42.8 °F 87% 29.92 in 6.2 mi WSW 4.6 mph - N/A   Partly Cloudy
8:30 PM 46.4 °F 43.5 °F 42.8 °F 87% 29.92 in - WSW 5.8 mph - N/A   Clear
9:00 PM 46.4 °F 43.5 °F 42.8 °F 87% 29.95 in - WSW 5.8 mph - N/A   Clear
10:00 PM 46.4 °F 45.2 °F 42.8 °F 87% 29.95 in - West 3.5 mph - N/A   Clear
11:00 PM 44.6 °F - 42.8 °F 93% 29.95 in 6.2 mi Variable 1.2 mph - N/A   Partly Cloudy